| time (UTC) | temp C | wind direction | speed KPH | gust KPH | rain 1hr cm | rain 24hr cm | rain mn cm | humidity % | barometer mb |
| 20260904101603 | 23 | 95 | 0.0 | 0.0 | 0.00 | 0.00 | 0.00 | 94 | 1013.5 |
| 20260904100048 | 23 | 95 | 0.0 | 0.0 | 0.00 | 0.00 | 0.00 | 94 | 1013.4 |
| 20260904094546 | 23 | 94 | 0.0 | 0.0 | 0.00 | 0.00 | 0.00 | 93 | 1013.3 |
| 20260904093108 | 23 | 95 | 0.0 | 0.0 | 0.00 | 0.00 | 0.00 | 93 | 1013.3 |
| 20260904091545 | 23 | 94 | 0.0 | 0.0 | 0.00 | 0.00 | 0.00 | 93 | 1013.2 |
| 20260904090045 | 23 | 95 | 0.0 | 0.0 | 0.00 | 0.00 | 0.00 | 93 | 1013.1 |
| 20260904084541 | 23 | 94 | 0.0 | 0.0 | 0.00 | 0.00 | 0.00 | 93 | 1013.1 |
| 20260904083040 | 23 | 95 | 0.0 | 0.0 | 0.00 | 0.00 | 0.00 | 93 | 1013.0 |
| 20260904081541 | 23 | 95 | 0.0 | 0.0 | 0.00 | 0.00 | 0.00 | 93 | 1013.0 |
| 20260904080041 | 24 | 95 | 0.0 | 0.0 | 0.00 | 0.00 | 0.00 | 92 | 1012.8 |
| 20260904074539 | 24 | 95 | 0.0 | 0.0 | 0.00 | 0.00 | 0.00 | 92 | 1012.8 |
| 20260904073039 | 24 | 94 | 0.0 | 0.0 | 0.00 | 0.00 | 0.00 | 92 | 1012.8 |
| 20260904071534 | 24 | 95 | 0.0 | 0.0 | 0.00 | 0.00 | 0.00 | 92 | 1012.8 |
| 20260904070044 | 24 | 94 | 0.0 | 0.0 | 0.00 | 0.00 | 0.00 | 92 | 1012.9 |
| 20260904064537 | 24 | 94 | 0.0 | 0.0 | 0.00 | 0.00 | 0.00 | 92 | 1012.7 |
| 20260904063028 | 25 | 95 | 0.0 | 0.0 | 0.00 | 0.00 | 0.00 | 91 | 1012.7 |
| 20260904061528 | 25 | 95 | 0.0 | 0.0 | 0.00 | 0.00 | 0.00 | 91 | 1012.8 |
| 20260904060025 | 25 | 94 | 0.0 | 0.0 | 0.00 | 0.00 | 0.00 | 91 | 1012.6 |
| 20260904054530 | 25 | 95 | 0.0 | 0.0 | 0.00 | 0.00 | 0.00 | 91 | 1012.4 |
| 20260904053022 | 25 | 95 | 0.0 | 0.0 | 0.00 | 0.00 | 0.00 | 91 | 1012.5 |
| 20260904051520 | 25 | 95 | 0.0 | 0.0 | 0.00 | 0.00 | 0.00 | 90 | 1012.4 |
| 20260904050020 | 25 | 95 | 0.0 | 0.0 | 0.00 | 0.00 | 0.00 | 90 | 1012.6 |
| 20260904044524 | 25 | 94 | 0.0 | 0.0 | 0.00 | 0.00 | 0.00 | 90 | 1012.4 |
| 20260904043017 | 25 | 95 | 0.0 | 0.0 | 0.00 | 0.00 | 0.00 | 89 | 1012.5 |
| 20260904041514 | 25 | 94 | 0.0 | 0.0 | 0.00 | 0.00 | 0.00 | 88 | 1012.3 |
| 20260904040015 | 25 | 94 | 0.0 | 0.0 | 0.00 | 0.00 | 0.00 | 88 | 1012.3 |
| 20260904034531 | 26 | 94 | 0.0 | 0.0 | 0.00 | 0.00 | 0.00 | 88 | 1012.1 |
| 20260904033013 | 26 | 94 | 0.0 | 0.0 | 0.00 | 0.00 | 0.00 | 89 | 1012.1 |
| 20260904031515 | 26 | 94 | 0.0 | 0.0 | 0.00 | 0.00 | 0.00 | 88 | 1012.3 |
| 20260904030012 | 26 | 94 | 0.0 | 0.0 | 0.00 | 0.00 | 0.00 | 88 | 1012.2 |
| 20260904024512 | 26 | 94 | 0.0 | 0.0 | 0.00 | 0.00 | 0.00 | 87 | 1012.2 |
| 20260904023011 | 26 | 94 | 0.0 | 0.0 | 0.00 | 0.00 | 0.00 | 86 | 1012.4 |
| 20260904021509 | 27 | 94 | 0.0 | 0.0 | 0.00 | 0.00 | 0.00 | 86 | 1012.3 |
| 20260904020009 | 27 | 95 | 0.0 | 0.0 | 0.00 | 0.00 | 0.00 | 85 | 1012.2 |
| 20260904014509 | 27 | 95 | 0.0 | 0.0 | 0.00 | 0.00 | 0.00 | 85 | 1012.1 |
| 20260904013009 | 27 | 95 | 0.0 | 0.0 | 0.00 | 0.00 | 0.00 | 84 | 1012.0 |
| 20260904011521 | 28 | 94 | 0.0 | 0.0 | 0.00 | 0.00 | 0.00 | 83 | 1011.8 |
| 20260904010007 | 28 | 95 | 0.0 | 0.0 | 0.00 | 0.00 | 0.00 | 81 | 1011.6 |
| 20260904004506 | 29 | 95 | 0.0 | 0.0 | 0.00 | 0.00 | 0.00 | 78 | 1011.4 |
| 20260904003005 | 30 | 95 | 0.0 | 0.0 | 0.00 | 0.00 | 0.00 | 75 | 1011.2 |
| 20260904001505 | 31 | 94 | 0.0 | 0.0 | 0.00 | 0.00 | 0.00 | 72 | 1011.3 |
| 20260904000005 | 31 | 94 | 0.0 | 1.6 | 0.00 | 0.00 | 0.00 | 70 | 1011.3 |
| 20260903234502 | 32 | 94 | 0.0 | 3.2 | 0.00 | 0.00 | 0.00 | 67 | 1011.5 |
| 20260903233004 | 32 | 40 | 0.0 | 1.6 | 0.00 | 0.00 | 0.00 | 66 | 1011.5 |
| 20260903231558 | 32 | 40 | 0.0 | 1.6 | 0.00 | 0.00 | 0.00 | 66 | 1011.7 |
| 20260903230057 | 32 | 100 | 0.0 | 3.2 | 0.00 | 0.00 | 0.00 | 65 | 1011.9 |
| 20260903224557 | 32 | 250 | 0.0 | 1.6 | 0.00 | 0.00 | 0.00 | 66 | 1011.7 |
| 20260903223056 | 32 | 108 | 0.0 | 0.0 | 0.00 | 0.00 | 0.00 | 68 | 1011.7 |
| 20260903221554 | 31 | 173 | 0.0 | 8.0 | 0.00 | 0.00 | 0.00 | 69 | 1011.8 |
| 20260903220104 | 31 | 33 | 0.0 | 8.0 | 0.00 | 0.00 | 0.00 | 69 | 1012.0 |
| 20260903214551 | 31 | 61 | 1.6 | 9.7 | 0.00 | 0.00 | 0.00 | 68 | 1012.2 |
| 20260903213057 | 31 | 297 | 3.2 | 9.7 | 0.00 | 0.00 | 0.00 | 69 | 1012.3 |
| 20260903211553 | 30 | 194 | 3.2 | 17.7 | 0.00 | 0.00 | 0.00 | 71 | 1012.4 |
| 20260903210053 | 32 | 133 | 0.0 | 11.3 | 0.00 | 0.00 | 0.00 | 68 | 1012.5 |
| 20260903204547 | 33 | 112 | 0.0 | 22.5 | 0.00 | 0.00 | 0.00 | 64 | 1012.4 |
| 20260903203109 | 33 | 4 | 0.0 | 3.2 | 0.00 | 0.00 | 0.00 | 64 | 1012.3 |
| 20260903201545 | 33 | 34 | 0.0 | 3.2 | 0.00 | 0.00 | 0.00 | 64 | 1012.4 |
| 20260903200044 | 33 | 228 | 0.0 | 1.6 | 0.00 | 0.00 | 0.00 | 64 | 1012.7 |
| 20260903194548 | 33 | 234 | 0.0 | 1.6 | 0.00 | 0.00 | 0.00 | 64 | 1012.7 |
| 20260903193043 | 33 | 83 | 0.0 | 6.4 | 0.00 | 0.00 | 0.00 | 63 | 1012.6 |
| 20260903191539 | 33 | 308 | 0.0 | 8.0 | 0.00 | 0.00 | 0.00 | 62 | 1013.0 |
| 20260903190036 | 34 | 231 | 1.6 | 9.7 | 0.00 | 0.00 | 0.00 | 59 | 1013.1 |
| 20260903184536 | 33 | 149 | 1.6 | 6.4 | 0.00 | 0.00 | 0.00 | 62 | 1013.3 |
| 20260903183039 | 33 | 172 | 0.0 | 6.4 | 0.00 | 0.00 | 0.00 | 63 | 1013.3 |
| 20260903181531 | 33 | 79 | 0.0 | 9.7 | 0.00 | 0.00 | 0.00 | 63 | 1013.6 |
| 20260903180030 | 33 | 93 | 0.0 | 9.7 | 0.00 | 0.00 | 0.00 | 67 | 1013.8 |
| 20260903174529 | 32 | 110 | 3.2 | 9.7 | 0.00 | 0.23 | 0.00 | 67 | 1014.1 |
| 20260903173028 | 32 | 177 | 1.6 | 9.7 | 0.00 | 0.23 | 0.00 | 66 | 1014.3 |
| 20260903171529 | 32 | 147 | 1.6 | 9.7 | 0.00 | 0.23 | 0.00 | 67 | 1014.6 |
| 20260903170026 | 31 | 66 | 0.0 | 8.0 | 0.00 | 0.23 | 0.00 | 71 | 1014.7 |
| 20260903164523 | 31 | 62 | 1.6 | 8.0 | 0.00 | 0.23 | 0.00 | 71 | 1014.9 |
| 20260903163022 | 31 | 87 | 0.0 | 1.6 | 0.00 | 0.23 | 0.00 | 73 | 1015.0 |
| 20260903161521 | 31 | 87 | 0.0 | 8.0 | 0.00 | 0.23 | 0.00 | 70 | 1015.0 |
| 20260903160029 | 31 | 108 | 0.0 | 3.2 | 0.00 | 0.23 | 0.00 | 71 | 1015.0 |
| 20260903154512 | 30 | 255 | 1.6 | 3.2 | 0.00 | 0.23 | 0.00 | 77 | 1015.0 |
| 20260903153011 | 30 | 138 | 0.0 | 3.2 | 0.00 | 0.23 | 0.00 | 78 | 1014.9 |
| 20260903151507 | 29 | 217 | 0.0 | 3.2 | 0.00 | 0.23 | 0.00 | 81 | 1014.8 |
| 20260903150006 | 29 | 66 | 0.0 | 3.2 | 0.00 | 0.23 | 0.00 | 82 | 1014.8 |
| 20260903144514 | 28 | 66 | 0.0 | 1.6 | 0.00 | 0.23 | 0.00 | 84 | 1014.9 |
| 20260903143100 | 28 | 66 | 0.0 | 6.4 | 0.00 | 0.23 | 0.00 | 86 | 1014.9 |
| 20260903141557 | 27 | 58 | 0.0 | 1.6 | 0.00 | 0.23 | 0.00 | 89 | 1015.0 |
| 20260903140051 | 26 | 58 | 0.0 | 0.0 | 0.00 | 0.23 | 0.00 | 92 | 1015.0 |
| 20260903134549 | 26 | 58 | 0.0 | 1.6 | 0.00 | 0.23 | 0.00 | 94 | 1015.1 |
| 20260903133056 | 25 | 58 | 0.0 | 1.6 | 0.00 | 0.23 | 0.00 | 94 | 1015.0 |
| 20260903131544 | 25 | 87 | 1.6 | 3.2 | 0.00 | 0.23 | 0.00 | 95 | 1015.0 |
| 20260903130045 | 25 | 51 | 0.0 | 0.0 | 0.00 | 0.23 | 0.00 | 95 | 1015.0 |
| 20260903124541 | 24 | 51 | 0.0 | 1.6 | 0.00 | 0.23 | 0.00 | 95 | 1015.0 |
| 20260903123040 | 24 | 51 | 0.0 | 0.0 | 0.00 | 0.23 | 0.00 | 95 | 1015.0 |
| 20260903121539 | 23 | 51 | 0.0 | 0.0 | 0.00 | 0.23 | 0.00 | 95 | 1014.7 |
| 20260903120052 | 23 | 51 | 0.0 | 0.0 | 0.00 | 0.23 | 0.00 | 94 | 1014.5 |
| 20260903114534 | 23 | 51 | 0.0 | 0.0 | 0.00 | 0.23 | 0.00 | 94 | 1014.3 |
| 20260903113101 | 23 | 51 | 0.0 | 0.0 | 0.00 | 0.23 | 0.00 | 94 | 1014.3 |
| 20260903111532 | 23 | 51 | 0.0 | 0.0 | 0.00 | 0.23 | 0.00 | 94 | 1014.2 |
| 20260903110032 | 23 | 51 | 0.0 | 0.0 | 0.00 | 0.23 | 0.00 | 94 | 1014.2 |
| 20260903104550 | 23 | 50 | 0.0 | 0.0 | 0.00 | 0.23 | 0.00 | 94 | 1014.1 |
| 20260903103034 | 23 | 51 | 0.0 | 0.0 | 0.00 | 0.23 | 0.00 | 94 | 1013.9 |